Preview of NWS' New Version of Forecast
This preview is not operational and should not be used for support decisions.

Regional Weather Roundup (RWR)

Issued by National Weather Service (NWS)

                            
000
ASCA42 TJSJ 200410
RWRPR 
PUERTO RICO/U.S. VIRGIN ISLANDS HOURLY WEATHER ROUNDUP
NATIONAL WEATHER SERVICE SAN JUAN PR
1200 AM AST TUE AUG 20 2019

PRZ001>002-007>008-010-200500-
PUERTO RICO
  
CITY           SKY/WX    TMP DP  RH WIND       PRES   REMARKS
SAN JUAN LMM   PTCLDY    82  79  89 E6        30.04S HX  93           
CEIBA          PTCLDY    82  77  83 E8        30.05S HX  91           
$$

VIZ001>002-200500-
U.S. VIRGIN ISLANDS
  
CITY           SKY/WX    TMP DP  RH WIND       PRES   REMARKS
CHARLOTTE AMA  CLEAR     82  79  89 E10       30.03S HX  93           
CHRISTIANSTED  CLEAR     81  75  83 NE5       30.04S                  
$$

HOURLY WEATHER ROUNDUP FOR THE NEWS MEDIA
  
CITY           SKY/WX    TMP DP  RH WIND       PRES   REMARKS
ORLANDO        FAIR      79  76  90 E5        30.12S                  
NEW YORK       FAIR      76  74  93 SW7       30.01S                  
NEWARK         FAIR      79  71  76 W8        30.00S                  
CHICAGO        LGT RAIN  76  70  82 E6        30.01S                  
HARTFORD       FAIR      71  67  87 W5        29.96S                  
BOSTON         FAIR      79  68  69 W12       29.95F                  
DALLAS         PTCLDY    92  68  45 SE7       29.98R HX  96           
PHILADELPHIA   MOCLDY    81  73  76 SW3       30.02F                  
LOS ANGELES    CLEAR     68  61  78 SW9       29.90S                  
WASHINGTON DC  MOCLDY    76  68  76 CALM      30.04F